User: anonymous   Login
Location: Unspecified
(0.0000°N, 0.0000°E)
Time: 08:17:51
(UTC+01:00)
Language:

Cosmos 1295 Rocket - Orbit

View from above orbital plane
View from above orbital plane
View from above satellite
View from above satellite

Ground track
Ground track

The orbit data is extracted from the following two-line orbital elements,

1 12682U 81077B   15060.60461568  .00000146  00000-0  12875-3 0  9997
2 12682 082.9152 283.3166 0034097 173.8611 214.9883 13.78480726687335
Epoch (UTC): 01 March 2015 14:30:38
Eccentricity: 0.0034097
inclination: 82.9152°
perigee height: 944 km
apogee height: 994 km
right ascension of ascending node: 283.3166°
argument of perigee: 173.8611°
revolutions per day: 13.78480726
mean anomaly at epoch: 214.9883°
orbit number at epoch: 68733

The dashed part of the orbit path shows where the satellite is in the earth's shadow,  

DLR